Location: Geelbroek
(52.9503°N, 6.5712°E)
Time: 22:39:06
(UTC+00:00)

Cosmos 44 Rocket - Pass Details

Date: 15 May 2026
Orbit: 631 x 746 km, 65.1° (Epoch: 10 June)

Event Time Altitude Azimuth Distance (km) Brightness Sun altitude
Rises 19:58:23 0° 237° (WSW) 3,128 6.9 -4.8°
Reaches altitude 10° 20:00:46 10° 241° (WSW) 2,224 6.2 -5.0°
Maximum altitude 20:05:48 57° 320° (NW) 873 4.3 -5.6°
Drops below altitude 10° 20:10:56 10° 40° (NE) 2,271 6.0 -6.2°
Sets 20:13:23 0° 44° (NE) 3,199 6.7 -6.4°
